Location: Peebles
(55.6412°N, 3.1714°W)
Time: 13:58:49
(UTC+01:00)

YAOGAN 1 - Pass Details

Date: 26 September 2021
Orbit: 618 x 620 km, 97.9° (Epoch: 18 October)

Event Time Altitude Azimuth Distance (km) Brightness Sun altitude
Rises 19:49:24 0° 167° (SSE) 2,888 5.8 -7.7°
Reaches altitude 10° 19:51:35 10° 169° (S) 1,986 5.0 -8.0°
Maximum altitude 19:55:55 77° 255° (WSW) 644 2.8 -8.6°
Drops below altitude 10° 20:00:16 10° 343° (NNW) 2,000 5.6 -9.2°
Sets 20:02:29 0° 344° (NNW) 2,911 6.4 -9.5°
